Location: Austin
(30.3000°N, 97.7500°W)
Time: 12:26:42
(UTC-05:00)

SL-16 R/B - Pass Details

Date: 26 May 2023
Orbit: 841 x 847 km, 71.0° (Epoch: 30 May)

Event Time Altitude Azimuth Distance (km) Brightness Sun altitude
Exits shadow 23:04:46 19° 55° (NE) 1,892 4.0 -28.0°
Drops below altitude 10° 23:06:39 10° 42° (NE) 2,469 4.7 -28.3°
Sets 23:09:20 0° 33° (NNE) 3,406 5.6 -28.6°
